Flag for Germany Weather past 2 weeks in Neustadt an der Weinstraße, Rhineland-Palatinate, Germany

Now
52 °F

Partly sunny.


Feels Like: 46 °F
Forecast: 39 / 51 °F
Wind: 17 mph from West

Location: Baden Wurttemberg - Neuostheim

Current Time: Oct 22, 2014 at 4:21:33 PM

Latest Report: Oct 22, 2014 at 3:50 PM


Visibility: N/A

Pressure: 30.04 "Hg

Humidity: 62%

Dew point: 39 °F

Location of Neustadt an der WeinstraßeLocation

Historic Weather in Neustadt an der Weinstraße — Graph

°F

Neustadt an der Weinstraße temperature yesterday

Maximum temperature yesterday: 63 °F (at 3:50 PM)
Minimum temperature yesterday: 46 °F (at 5:50 AM)
Average temperature yesterday: 56 °F

Past Weeks' High & Low Weather Summary

 TemperatureHumidityPressure
High75 °F (Oct 19, 4:20 PM)100% (Oct 9, 10:20 PM)30.18 "Hg (Oct 9, 10:20 PM)
Low46 °F (Oct 18, 7:20 AM)57% (Oct 14, 3:20 PM)29.62 "Hg (Oct 21, 5:50 PM)
Average61 °F81%29.90 "Hg
* Reported Oct 7 2:20 PM — Oct 22 2:50 PM, Neustadt an der Weinstraße, Weather by CustomWeather, © 2014

Note: Actual official high and low records may vary slightly from our data, if they occured in-between our weather recording intervals... More about our weather records

Advertising

Neustadt an der Weinstraße weather history for previous 24 hours

 ConditionsComfort  
Time TempWeatherWind HumidityBarometerVisibility
2:50 PM
Oct 22
52 °FBroken clouds.15 mph62%30.07 "HgN/A
2:20 PM50 °FBroken clouds.17 mph62%30.07 "HgN/A
1:50 PM50 °FBroken clouds.16 mph67%30.07 "HgN/A
1:20 PM50 °FBroken clouds.13 mph67%30.07 "HgN/A
12:50 PM50 °FPartly sunny.16 mph67%30.07 "HgN/A
12:20 PM48 °FBroken clouds.14 mph71%30.07 "HgN/A
11:50 AM48 °FBroken clouds.14 mph71%30.07 "HgN/A
11:20 AM48 °FScattered showers. Broken clouds.17 mph66%30.07 "HgN/A
10:50 AM48 °FPartly sunny.15 mph66%30.07 "HgN/A
10:20 AM48 °FBroken clouds.14 mph66%30.07 "HgN/A
9:50 AM48 °FPartly sunny.12 mph71%30.04 "HgN/A
9:20 AM46 °FBroken clouds.13 mph76%30.04 "HgN/A
8:50 AM46 °FOvercast.12 mph76%30.04 "HgN/A
8:20 AM46 °FPassing clouds.8 mph71%30.01 "HgN/A
7:50 AM46 °FPassing clouds.13 mph71%30.01 "HgN/A
7:20 AM46 °FPassing clouds.13 mph71%29.98 "HgN/A
6:50 AM46 °FOvercast.14 mph71%29.98 "HgN/A
6:20 AM48 °FOvercast.15 mph66%29.95 "HgN/A
5:50 AM48 °FMostly cloudy.12 mph66%29.95 "HgN/A
5:20 AM48 °FPassing clouds.12 mph66%29.95 "HgN/A
9:20 PM
Oct 21
50 °FScattered showers. Partly cloudy.20 mph71%29.80 "HgN/A
8:50 PM52 °FPartly cloudy.16 mph67%29.77 "HgN/A
8:20 PM54 °FPartly cloudy.16 mph67%29.74 "HgN/A
7:50 PM54 °FPartly cloudy.13 mph77%29.71 "HgN/A
7:20 PM54 °FPartly sunny.13 mph82%29.65 "HgN/A
6:50 PM52 °FSprinkles. Broken clouds.20 mph94%29.65 "Hg4 mi
6:20 PM59 °FSprinkles. Partly sunny.12 mph82%29.62 "HgN/A
5:50 PM59 °FScattered clouds.12 mph77%29.62 "HgN/A
5:20 PM59 °FLight rain. Partly sunny.12 mph77%29.65 "HgN/A
4:50 PM61 °FLight rain. Partly sunny.12 mph68%29.68 "HgN/A
4:20 PM61 °FBroken clouds.12 mph63%29.71 "HgN/A
Weather by CustomWeather, © 2014

See weather overviewHow to use our weather pages